Time,TemperatureF,DewpointF,PressureIn,WindDirection,WindDirectionDegrees,WindSpeedMPH,WindSpeedGustMPH,Humidity,HourlyPrecipIn,Conditions,Clouds,dailyrainin,SoftwareType,DateUTC
2013-05-17 00:00:00,52.8,49.6,29.76,ESE,112,3.0,9.0,89,0.00,,,0.00,VWS V14.01,2013-05-17 05:00:00,
2013-05-17 00:15:00,52.9,50.0,29.76,East,90,3.0,10.0,90,0.00,,,0.00,VWS V14.01,2013-05-17 05:15:00,
2013-05-17 00:30:00,52.9,50.0,29.76,East,90,4.0,8.0,90,0.00,,,0.00,VWS V14.01,2013-05-17 05:30:00,
2013-05-17 00:45:00,53.0,50.1,29.76,ESE,112,3.0,8.0,90,0.00,,,0.00,VWS V14.01,2013-05-17 05:45:00,
2013-05-17 01:00:00,53.0,50.1,29.76,East,90,2.0,7.0,90,0.00,,,0.00,VWS V14.01,2013-05-17 06:00:00,
2013-05-17 01:15:00,52.9,50.3,29.77,East,90,2.0,7.0,91,0.00,,,0.00,VWS V14.01,2013-05-17 06:15:00,
2013-05-17 01:30:00,52.8,50.2,29.76,ENE,68,2.0,8.0,91,0.00,,,0.00,VWS V14.01,2013-05-17 06:30:00,
2013-05-17 01:45:00,52.8,50.2,29.76,East,90,3.0,8.0,91,0.00,,,0.00,VWS V14.01,2013-05-17 06:45:00,
2013-05-17 02:00:00,52.7,50.4,29.76,ENE,68,2.0,7.0,92,0.00,,,0.00,VWS V14.01,2013-05-17 07:00:00,
2013-05-17 02:15:00,52.4,50.1,29.75,ENE,68,1.0,5.0,92,0.00,,,0.00,VWS V14.01,2013-05-17 07:15:00,
2013-05-17 02:30:00,52.2,49.9,29.75,NE,45,1.0,4.0,92,0.00,,,0.00,VWS V14.01,2013-05-17 07:30:00,
2013-05-17 02:45:00,52.0,50.0,29.75,NE,45,1.0,5.0,93,0.00,,,0.00,VWS V14.01,2013-05-17 07:45:00,
2013-05-17 03:00:00,51.9,49.9,29.75,ENE,68,3.0,8.0,93,0.00,,,0.00,VWS V14.01,2013-05-17 08:00:00,
2013-05-17 03:15:00,51.7,49.7,29.74,NE,45,3.0,7.0,93,0.00,,,0.00,VWS V14.01,2013-05-17 08:15:00,
2013-05-17 03:30:00,51.7,49.7,29.75,ENE,68,2.0,5.0,93,0.00,,,0.00,VWS V14.01,2013-05-17 08:30:00,
2013-05-17 03:45:00,51.8,50.0,29.75,ENE,68,2.0,7.0,94,0.00,,,0.00,VWS V14.01,2013-05-17 08:45:00,
2013-05-17 04:00:00,51.9,50.2,29.75,ENE,68,3.0,8.0,94,0.00,,,0.00,VWS V14.01,2013-05-17 09:00:00,
2013-05-17 04:15:00,51.9,50.2,29.75,ENE,68,6.0,11.0,94,0.00,,,0.00,VWS V14.01,2013-05-17 09:15:00,
2013-05-17 04:30:00,52.0,50.2,29.75,East,90,6.0,11.0,94,0.00,,,0.00,VWS V14.01,2013-05-17 09:30:00,
2013-05-17 04:45:00,52.0,50.2,29.74,East,90,6.0,11.0,94,0.00,,,0.00,VWS V14.01,2013-05-17 09:45:00,
2013-05-17 05:00:00,51.9,50.2,29.74,East,90,6.0,13.0,94,0.00,,,0.00,VWS V14.01,2013-05-17 10:00:00,
2013-05-17 05:15:00,51.8,50.0,29.74,East,90,5.0,10.0,94,0.00,,,0.00,VWS V14.01,2013-05-17 10:15:00,
2013-05-17 05:30:00,51.8,50.0,29.75,East,90,3.0,7.0,94,0.00,,,0.00,VWS V14.01,2013-05-17 10:30:00,
2013-05-17 05:45:00,51.8,50.0,29.74,East,90,4.0,10.0,94,0.00,,,0.00,VWS V14.01,2013-05-17 10:45:00,
2013-05-17 06:00:00,51.7,50.0,29.75,East,90,4.0,10.0,94,0.00,,,0.00,VWS V14.01,2013-05-17 11:00:00,
2013-05-17 06:15:00,51.7,50.0,29.75,East,90,3.0,8.0,94,0.00,,,0.00,VWS V14.01,2013-05-17 11:15:00,
2013-05-17 06:30:00,51.6,49.8,29.75,ENE,68,4.0,9.0,94,0.00,,,0.00,VWS V14.01,2013-05-17 11:30:00,
2013-05-17 06:45:00,51.8,49.8,29.76,ENE,68,3.0,8.0,93,0.00,,,0.00,VWS V14.01,2013-05-17 11:45:00,
2013-05-17 07:00:00,51.8,49.8,29.76,ESE,112,2.0,7.0,93,0.00,,,0.00,VWS V14.01,2013-05-17 12:00:00,
2013-05-17 07:15:00,51.8,49.8,29.75,East,90,4.0,8.0,93,0.00,,,0.00,VWS V14.01,2013-05-17 12:15:00,
2013-05-17 07:30:00,52.0,50.0,29.74,East,90,5.0,11.0,93,0.00,,,0.00,VWS V14.01,2013-05-17 12:30:00,
2013-05-17 07:45:00,52.0,49.7,29.74,ENE,68,6.0,12.0,92,0.00,,,0.00,VWS V14.01,2013-05-17 12:45:00,
2013-05-17 08:00:00,52.0,49.7,29.75,ENE,68,6.0,13.0,92,0.00,,,0.00,VWS V14.01,2013-05-17 13:00:00,
2013-05-17 08:15:00,52.1,49.8,29.74,East,90,6.0,13.0,92,0.00,,,0.00,VWS V14.01,2013-05-17 13:15:00,
2013-05-17 08:30:00,52.6,50.3,29.74,ENE,68,5.0,10.0,92,0.00,,,0.00,VWS V14.01,2013-05-17 13:30:00,
2013-05-17 08:45:00,53.0,50.4,29.75,ENE,68,5.0,12.0,91,0.00,,,0.00,VWS V14.01,2013-05-17 13:45:00,
2013-05-17 09:00:00,53.1,50.5,29.75,East,90,5.0,11.0,91,0.00,,,0.00,VWS V14.01,2013-05-17 14:00:00,
2013-05-17 09:15:00,53.1,50.2,29.74,East,90,5.0,11.0,90,0.00,,,0.00,VWS V14.01,2013-05-17 14:15:00,
2013-05-17 09:30:00,53.6,50.7,29.74,East,90,4.0,13.0,90,0.00,,,0.00,VWS V14.01,2013-05-17 14:30:00,
2013-05-17 09:45:00,54.1,50.5,29.75,ESE,112,4.0,10.0,88,0.00,,,0.00,VWS V14.01,2013-05-17 14:45:00,
2013-05-17 10:00:00,54.3,50.4,29.74,ESE,112,4.0,11.0,87,0.00,,,0.00,VWS V14.01,2013-05-17 15:00:00,
2013-05-17 10:15:00,54.8,50.6,29.74,ESE,112,4.0,10.0,86,0.00,,,0.00,VWS V14.01,2013-05-17 15:15:00,
2013-05-17 10:30:00,54.8,50.6,29.74,ESE,112,5.0,11.0,86,0.00,,,0.00,VWS V14.01,2013-05-17 15:30:00,
2013-05-17 10:45:00,55.5,51.0,29.74,ESE,112,4.0,9.0,85,0.00,,,0.00,VWS V14.01,2013-05-17 15:45:00,
2013-05-17 11:00:00,55.7,50.8,29.73,SE,135,5.0,12.0,84,0.00,,,0.00,VWS V14.01,2013-05-17 16:00:00,
2013-05-17 11:15:00,57.2,52.0,29.73,ESE,112,5.0,11.0,83,0.00,,,0.00,VWS V14.01,2013-05-17 16:15:00,
2013-05-17 11:30:00,57.5,52.0,29.74,ESE,112,4.0,11.0,82,0.00,,,0.00,VWS V14.01,2013-05-17 16:30:00,
2013-05-17 11:45:00,58.3,52.7,29.74,East,90,3.0,8.0,82,0.00,,,0.00,VWS V14.01,2013-05-17 16:45:00,
2013-05-17 12:00:00,58.3,52.1,29.73,SE,135,4.0,9.0,80,0.00,,,0.00,VWS V14.01,2013-05-17 17:00:00,
2013-05-17 12:15:00,59.2,52.9,29.73,ESE,112,2.0,8.0,80,0.00,,,0.00,VWS V14.01,2013-05-17 17:15:00,
2013-05-17 12:30:00,60.7,53.3,29.73,East,90,3.0,7.0,77,0.00,,,0.00,VWS V14.01,2013-05-17 17:30:00,
2013-05-17 12:45:00,61.8,53.3,29.72,East,90,3.0,9.0,74,0.00,,,0.00,VWS V14.01,2013-05-17 17:45:00,
2013-05-17 13:00:00,62.1,53.2,29.72,SE,135,3.0,8.0,73,0.00,,,0.00,VWS V14.01,2013-05-17 18:00:00,
2013-05-17 13:15:00,63.0,54.1,29.72,ENE,68,2.0,7.0,73,0.00,,,0.00,VWS V14.01,2013-05-17 18:15:00,
2013-05-17 13:30:00,64.2,54.5,29.71,ENE,68,2.0,7.0,71,0.00,,,0.00,VWS V14.01,2013-05-17 18:30:00,
2013-05-17 13:45:00,65.6,54.7,29.71,ENE,68,3.0,9.0,68,0.00,,,0.00,VWS V14.01,2013-05-17 18:45:00,
2013-05-17 14:00:00,66.0,54.6,29.71,SE,135,4.0,10.0,67,0.00,,,0.00,VWS V14.01,2013-05-17 19:00:00,
2013-05-17 14:15:00,65.9,54.5,29.70,SSE,158,3.0,8.0,67,0.00,,,0.00,VWS V14.01,2013-05-17 19:15:00,
2013-05-17 14:30:00,67.0,54.7,29.70,East,90,4.0,10.0,65,0.00,,,0.00,VWS V14.01,2013-05-17 19:30:00,
2013-05-17 14:45:00,67.1,55.7,29.69,SE,135,5.0,11.0,67,0.00,,,0.00,VWS V14.01,2013-05-17 19:45:00,
2013-05-17 15:00:00,67.2,54.9,29.69,East,90,6.0,14.0,65,0.00,,,0.00,VWS V14.01,2013-05-17 20:00:00,
2013-05-17 15:15:00,67.7,55.4,29.69,SSE,158,4.0,9.0,65,0.00,,,0.00,VWS V14.01,2013-05-17 20:15:00,
2013-05-17 15:30:00,68.5,55.7,29.69,SE,135,4.0,12.0,64,0.00,,,0.00,VWS V14.01,2013-05-17 20:30:00,
2013-05-17 15:45:00,67.7,55.8,29.69,SE,135,4.0,11.0,66,0.00,,,0.00,VWS V14.01,2013-05-17 20:45:00,
2013-05-17 16:00:00,69.1,56.3,29.69,ESE,112,3.0,9.0,64,0.00,,,0.00,VWS V14.01,2013-05-17 21:00:00,
2013-05-17 16:15:00,68.2,55.9,29.68,ESE,112,3.0,10.0,65,0.00,,,0.00,VWS V14.01,2013-05-17 21:15:00,
2013-05-17 16:30:00,68.4,56.1,29.68,SE,135,2.0,7.0,65,0.00,,,0.00,VWS V14.01,2013-05-17 21:30:00,
2013-05-17 16:45:00,68.8,56.4,29.68,ESE,112,2.0,7.0,65,0.00,,,0.00,VWS V14.01,2013-05-17 21:45:00,
2013-05-17 17:00:00,68.8,56.0,29.68,East,90,3.0,9.0,64,0.00,,,0.00,VWS V14.01,2013-05-17 22:00:00,
2013-05-17 17:15:00,68.9,56.5,29.68,East,90,4.0,7.0,65,0.00,,,0.00,VWS V14.01,2013-05-17 22:15:00,
2013-05-17 17:30:00,68.8,56.4,29.67,East,90,3.0,8.0,65,0.00,,,0.00,VWS V14.01,2013-05-17 22:30:00,
2013-05-17 17:45:00,69.2,56.4,29.67,East,90,3.0,8.0,64,0.00,,,0.00,VWS V14.01,2013-05-17 22:45:00,
2013-05-17 18:00:00,69.9,56.6,29.67,East,90,5.0,9.0,63,0.00,,,0.00,VWS V14.01,2013-05-17 23:00:00,
2013-05-17 18:15:00,69.5,56.2,29.67,East,90,5.0,13.0,63,0.00,,,0.00,VWS V14.01,2013-05-17 23:15:00,
2013-05-17 18:30:00,68.9,56.5,29.66,East,90,6.0,12.0,65,0.00,,,0.00,VWS V14.01,2013-05-17 23:30:00,
2013-05-17 18:45:00,68.7,56.3,29.66,East,90,6.0,13.0,65,0.00,,,0.00,VWS V14.01,2013-05-17 23:45:00,
2013-05-17 19:00:00,68.8,56.0,29.65,ENE,68,6.0,11.0,64,0.00,,,0.00,VWS V14.01,2013-05-18 00:00:00,
2013-05-17 19:15:00,68.2,55.9,29.64,ENE,68,5.0,13.0,65,0.00,,,0.00,VWS V14.01,2013-05-18 00:15:00,
2013-05-17 19:30:00,68.1,55.8,29.64,ENE,68,5.0,12.0,65,0.00,,,0.00,VWS V14.01,2013-05-18 00:30:00,
2013-05-17 19:45:00,68.6,55.8,29.64,ENE,68,4.0,13.0,64,0.00,,,0.00,VWS V14.01,2013-05-18 00:45:00,
2013-05-17 20:00:00,69.5,56.2,29.64,ENE,68,5.0,10.0,63,0.00,,,0.00,VWS V14.01,2013-05-18 01:00:00,
2013-05-17 20:15:00,68.7,55.5,29.64,East,90,5.0,14.0,63,0.00,,,0.00,VWS V14.01,2013-05-18 01:15:00,
2013-05-17 20:30:00,68.4,56.1,29.64,East,90,5.0,9.0,65,0.00,,,0.00,VWS V14.01,2013-05-18 01:30:00,
2013-05-17 20:45:00,67.7,55.8,29.64,East,90,4.0,10.0,66,0.00,,,0.00,VWS V14.01,2013-05-18 01:45:00,
2013-05-17 21:00:00,67.1,55.7,29.64,ENE,68,2.0,7.0,67,0.00,,,0.00,VWS V14.01,2013-05-18 02:00:00,
2013-05-17 21:15:00,66.6,55.6,29.64,ENE,68,3.0,11.0,68,0.00,,,0.00,VWS V14.01,2013-05-18 02:15:00,
2013-05-17 21:30:00,66.0,55.4,29.65,ENE,68,2.0,6.0,69,0.00,,,0.00,VWS V14.01,2013-05-18 02:30:00,
2013-05-17 21:45:00,65.5,54.5,29.65,ENE,68,2.0,7.0,68,0.00,,,0.00,VWS V14.01,2013-05-18 02:45:00,
2013-05-17 22:00:00,65.0,54.1,29.65,ENE,68,4.0,9.0,68,0.00,,,0.00,VWS V14.01,2013-05-18 03:00:00,
2013-05-17 22:15:00,64.3,53.4,29.66,ENE,68,4.0,9.0,68,0.00,,,0.00,VWS V14.01,2013-05-18 03:15:00,
2013-05-17 22:30:00,64.0,53.5,29.67,ENE,68,4.0,8.0,69,0.00,,,0.00,VWS V14.01,2013-05-18 03:30:00,
2013-05-17 22:45:00,63.6,53.1,29.67,ENE,68,3.0,8.0,69,0.00,,,0.00,VWS V14.01,2013-05-18 03:45:00,
2013-05-17 23:00:00,63.2,53.2,29.67,ENE,68,2.0,9.0,70,0.00,,,0.00,VWS V14.01,2013-05-18 04:00:00,
2013-05-17 23:15:00,62.7,53.1,29.66,ENE,68,3.0,9.0,71,0.00,,,0.00,VWS V14.01,2013-05-18 04:15:00,
2013-05-17 23:30:00,62.4,52.8,29.65,NE,45,3.0,8.0,71,0.00,,,0.00,VWS V14.01,2013-05-18 04:30:00,
2013-05-17 23:45:00,61.8,52.6,29.65,NNE,22,3.0,8.0,72,0.00,,,0.00,VWS V14.01,2013-05-18 04:45:00,